Weather History for KBJJ - September, 2013

Change the Weather History Date:

Saturday, September 7, 2013

  Actual Average Record
Temperature  
Mean Temperature 61 °F -  
Max Temperature 80 °F 75 °F 90 °F (2002)
Min Temperature 44 °F 51 °F 43 °F (2000)
Degree Days  
Heating Degree Days 4    
Growing Degree Days 11 (Base 50)    
Moisture  
Dew Point 53 °F    
Average Humidity 78    
Maximum Humidity 97    
Minimum Humidity 48    
Precipitation  
Precipitation 0.01 in - - ()
Sea Level Pressure  
Sea Level Pressure 30.06 in    
Wind  
Wind Speed 2 mph (SW)    
Max Wind Speed 10 mph    
Max Gust Speed -    
Visibility 8 miles    
Events      
Averages and records for this station are not official NWS values.
T = Trace of Precipitation, MM = Missing Value Source: NWS Daily Summary

Daily Weather History Graph

Daily Weather History Graph

Search for Another Location

Airport or City:

Trip Planner

Search our weather history database for the weather conditions in past years. The results will help you decide how hot, cold, wet, or windy it might be!

Date:

Astronomy

Sep. 07, 2013 Rise Set
Actual Time 7:00 AM EDT 7:49 PM EDT
Civil Twilight 6:32 AM EDT 8:17 PM EDT
Nautical Twilight 5:59 AM EDT 8:50 PM EDT
Astronomical Twilight 5:25 AM EDT 9:24 PM EDT
Moon 9:14 AM EDT (9/7) 8:45 PM EDT (9/7)
Length of Visible Light 13h 44m
Length of Day
12h 49m
Waxing Crescent, 5% of the Moon is Illuminated
Sep 7
Waxing Crescent
Sep 12
First Quarter
Sep 19
Full
Sep 26
Last Quarter
Oct 4
New

Hourly Weather History & Observations

Time (EDT) Temp. Dew Point Humidity Pressure Visibility Wind Dir Wind Speed Gust Speed Precip Events Conditions
12:56 AM 48.0 °F 45.0 °F 89% 30.13 in 10.0 mi Calm Calm - N/A   Clear
1:56 AM 46.0 °F 44.1 °F 93% 30.13 in 10.0 mi Calm Calm - N/A   Clear
2:56 AM 48.0 °F 46.0 °F 93% 30.12 in 10.0 mi Calm Calm - N/A   Clear
3:56 AM 50.0 °F 46.9 °F 89% 30.12 in 10.0 mi Calm Calm - N/A   Clear
4:56 AM 46.9 °F 45.0 °F 93% 30.11 in 8.0 mi Calm Calm - N/A   Clear
5:56 AM 45.0 °F 44.1 °F 97% 30.11 in 6.0 mi Calm Calm - N/A   Clear
6:31 AM 46.4 °F 44.6 °F 93% 30.11 in 1.8 mi Calm Calm - N/A   Clear
6:36 AM 46.4 °F 44.6 °F 93% 30.11 in 0.8 mi Calm Calm - N/A   Clear
6:44 AM 44.6 °F 42.8 °F 93% 30.11 in 1.2 mi Calm Calm - 0.01 in   Clear
6:52 AM 46.4 °F 44.6 °F 93% 30.11 in 3.0 mi Calm Calm - 0.01 in   Clear
6:53 AM 46.0 °F 44.1 °F 93% 30.12 in 3.0 mi Calm Calm - 0.01 in   Clear
7:56 AM 51.1 °F 48.0 °F 89% 30.12 in 10.0 mi Calm Calm - N/A   Clear
8:56 AM 59.0 °F 52.0 °F 78% 30.10 in 10.0 mi SW 4.6 mph - N/A   Clear
9:56 AM 64.9 °F 51.1 °F 61% 30.09 in 10.0 mi SW 5.8 mph - N/A   Clear
10:56 AM 70.0 °F 53.1 °F 55% 30.09 in 10.0 mi SW 6.9 mph - N/A   Clear
11:56 AM 73.9 °F 55.0 °F 52% 30.07 in 10.0 mi SW 6.9 mph - N/A   Partly Cloudy
12:56 PM 77.0 °F 55.9 °F 48% 30.06 in 10.0 mi Calm Calm - N/A   Scattered Clouds
1:56 PM 78.1 °F 57.0 °F 48% 30.04 in 10.0 mi SW 9.2 mph - N/A   Scattered Clouds
2:56 PM 78.1 °F 60.1 °F 54% 30.02 in 10.0 mi West 10.4 mph - N/A   Mostly Cloudy
3:56 PM 78.1 °F 61.0 °F 56% 30.01 in 10.0 mi West 8.1 mph - N/A   Mostly Cloudy
4:56 PM 78.1 °F 63.0 °F 60% 29.98 in 10.0 mi SW 6.9 mph - N/A   Clear
5:56 PM 77.0 °F 62.1 °F 60% 29.96 in 10.0 mi SSW 3.5 mph - N/A   Clear
6:56 PM 75.0 °F 63.0 °F 66% 29.98 in 10.0 mi SSW 3.5 mph - N/A   Scattered Clouds
7:56 PM 72.0 °F 64.0 °F 76% 29.97 in 10.0 mi SSW 4.6 mph - N/A   Mostly Cloudy
8:56 PM 70.0 °F 64.0 °F 81% 29.98 in 10.0 mi Calm Calm - 0.00 in   Mostly Cloudy
9:56 PM 66.0 °F 64.0 °F 93% 29.97 in 9.0 mi Calm Calm - N/A   Overcast
10:56 PM 66.0 °F 63.0 °F 90% 29.96 in 9.0 mi Calm Calm - N/A   Scattered Clouds
11:56 PM 66.9 °F 63.0 °F 87% 29.96 in 10.0 mi Calm Calm - N/A   Overcast